Wind_Speed
25 21 18 15 13 11 5 3 7 7 12 11 13 12 11 13 11 9 9 7 3 5 5 6 6 6 6 7 8 9 10 11 12 13 14 14 14 13 13 13 13 13 12 12 12 13 12 11 10
26 23 21 18 17 11 3 4 9 11 14 12 12 11 13 12 9 8 7 5 4 5 4 4 4 5 5 6 7 7 8 9 10 11 11 12 12 12 12 11 11 11 12 12 12 12 11 10 10
26 25 24 23 22 14 7 5 9 13 12 12 11 11 11 9 8 7 6 6 5 5 3 3 3 3 4 4 5 5 6 6 7 8 9 9 10 10 10 10 10 10 11 11 11 11 11 10 10
27 27 26 25 25 16 9 7 11 11 9 9 9 9 8 8 7 7 7 7 6 5 4 3 2 2 1 1 2 3 3 5 5 6 7 7 8 8 8 8 8 9 10 10 10 10 10 10 10
28 28 28 28 28 20 13 11 14 12 11 8 8 9 6 7 7 7 7 7 6 6 5 4 3 3 2 2 2 1 2 3 4 5 6 6 6 7 7 7 7 8 8 9 10 10 10 10 10
29 28 28 27 25 20 14 13 16 15 14 12 8 10 7 7 8 8 7 7 6 5 5 5 5 5 5 4 4 3 3 3 4 5 6 6 6 7 7 7 7 8 9 10 11 10 11 11 11
27 28 27 24 21 19 16 15 18 17 16 16 10 10 9 9 9 9 8 7 6 6 5 6 6 7 7 6 5 4 4 4 5 5 6 7 8 9 9 8 9 9 10 11 12 12 12 13 13
23 26 26 25 23 22 19 17 20 20 18 17 12 12 13 11 10 10 8 7 6 5 5 5 6 7 6 6 5 5 5 5 6 7 8 9 9 9 10 10 10 11 12 14 15 15 14 14 14
20 23 21 21 20 18 17 18 19 20 21 19 15 17 16 13 11 10 9 6 4 3 3 4 5 5 5 5 5 6 6 7 7 8 9 10 10 11 11 11 12 13 14 15 16 16 15 15 14
18 17 15 18 18 15 16 19 19 19 22 20 17 16 15 14 12 11 10 7 4 2 0 2 3 5 6 6 7 8 8 8 9 10 10 11 11 12 12 13 13 14 15 16 16 16 16 15 15
17 16 16 17 17 19 18 19 20 21 22 21 17 16 16 15 14 13 11 8 6 4 3 3 5 6 8 9 9 10 10 10 11 11 12 13 13 13 14 14 15 16 16 17 17 16 16 16 15
19 18 18 18 18 23 23 22 23 24 22 19 17 19 18 17 16 14 12 10 8 6 6 6 8 9 11 12 12 12 13 13 13 13 14 15 16 16 17 17 18 18 18 18 18 17 16 16 17
21 20 20 20 19 21 25 26 27 27 25 23 22 23 21 17 16 16 14 12 10 8 8 9 10 12 14 15 16 16 16 16 16 16 17 19 20 20 20 20 20 21 21 21 21 20 19 19 19
23 23 23 21 19 18 23 26 28 27 26 25 23 22 19 16 15 16 15 14 11 9 10 11 12 14 16 18 19 20 21 20 20 21 22 24 26 26 26 25 25 25 25 25 24 24 23 23 22
25 25 24 21 18 16 19 23 26 25 24 24 22 19 17 17 17 17 16 15 13 11 12 13 15 17 19 21 22 23 24 25 25 25 27 29 30 30 31 32 32 30 30 30 30 28 27 27 27
26 26 25 21 18 16 18 20 22 23 24 23 22 20 19 19 19 17 15 16 14 13 13 15 17 18 20 22 24 25 26 27 28 29 30 30 31 34 35 36 36 34 33 33 33 32 31 32 31
26 25 24 21 20 17 18 19 19 20 23 23 22 21 21 19 19 18 18 18 15 14 15 17 19 19 22 24 26 27 28 29 30 32 32 33 34 36 37 37 38 36 35 33 34 34 33 33 33
24 22 22 21 20 19 18 19 19 19 23 23 22 21 21 19 19 20 22 21 17 16 16 19 22 22 24 27 28 29 30 31 32 33 35 34 36 38 37 37 36 34 33 33 33 33 33 32 33
23 18 18 18 19 21 20 22 21 19 22 22 22 21 22 20 21 23 22 23 21 19 19 20 24 26 27 29 30 31 32 32 34 35 36 36 37 37 37 35 34 34 32 30 28 29 30 30 29
29 26 22 18 19 23 23 25 25 22 20 23 24 24 24 24 24 25 24 25 24 22 22 24 27 29 31 32 32 33 33 33 34 35 36 37 38 37 37 34 33 32 31 28 26 25 24 25 25
32 29 25 20 20 27 29 29 30 28 25 26 28 27 25 27 27 27 27 27 27 27 27 28 29 32 33 34 34 34 34 34 35 37 38 38 38 38 35 33 31 31 30 29 27 26 25 24 24
34 32 30 27 25 28 32 31 29 29 30 30 30 30 32 31 29 29 30 30 31 31 32 32 32 34 35 35 35 35 35 36 37 38 39 39 39 39 35 33 31 31 31 30 29 28 27 27 26
33 31 31 33 32 31 30 30 26 25 29 31 33 35 35 32 31 32 34 34 34 35 35 35 35 36 36 36 36 35 36 37 38 39 40 40 40 39 36 34 32 31 31 31 30 30 30 30 30
30 27 26 30 33 37 35 32 27 24 27 31 37 39 37 35 34 34 35 36 37 38 38 38 37 36 36 36 36 36 37 38 40 41 40 41 41 38 37 35 34 33 33 31 31 32 32 32 33
29 27 26 28 33 35 31 32 31 30 33 36 40 42 40 38 36 35 36 38 38 38 38 38 37 37 37 37 37 38 39 40 41 42 41 41 40 39 38 37 36 35 34 34 34 34 34 36 37
28 28 27 21 16 17 20 24 27 34 37 38 40 42 43 43 41 40 39 38 37 36 36 36 36 37 38 38 39 40 41 42 42 42 42 42 41 40 39 39 38 37 36 36 36 37 38 40 41
24 26 26 24 21 18 14 22 29 33 36 38 41 44 46 46 45 43 40 37 35 34 34 34 35 36 37 38 39 40 41 42 42 43 43 43 42 42 42 41 41 39 39 39 39 40 41 42 44
24 21 22 27 26 21 13 19 30 32 32 33 35 40 43 44 43 41 37 34 33 32 32 33 34 36 37 38 39 40 42 42 43 44 44 44 44 44 43 43 43 42 42 42 43 44 45 46 48
20 23 23 23 25 23 18 21 26 29 32 31 31 31 33 35 36 35 33 32 31 32 32 33 34 35 36 38 39 40 42 43 44 45 46 47 47 47 47 47 46 46 46 46 47 48 49 50 51
17 20 22 24 24 25 23 25 30 31 30 29 30 30 29 29 30 30 31 31 31 32 33 34 35 36 37 38 40 42 43 45 46 48 49 50 51 51 51 50 50 50 50 50 51 52 53 54 54
Wind_Direction
223 220 218 210 189 167 97 326 287 270 261 262 264 270 267 259 264 265 256 256 241 249 261 262 259 257 253 245 240 239 241 243 246 249 252 253 254 254 255 256 258 259 258 257 257 257 257 256 256
224 221 219 210 192 172 193 233 259 261 268 277 279 269 262 262 260 250 239 229 207 226 235 251 255 257 256 250 245 244 247 250 253 256 258 258 256 255 256 258 260 259 257 255 255 255 254 255 256
225 222 219 211 196 189 179 166 255 266 272 274 278 275 267 264 251 231 217 206 191 195 198 225 243 248 254 255 254 255 260 265 267 270 269 264 260 258 258 258 257 256 255 254 253 254 256 256 257
226 223 220 214 203 193 222 228 257 268 261 265 271 278 271 254 235 219 204 194 182 173 163 166 189 203 224 259 276 278 283 290 291 290 283 276 272 268 263 258 255 254 254 255 256 259 261 262 263
225 222 220 216 208 202 223 242 256 253 252 256 258 263 257 235 218 203 193 183 170 161 151 143 137 127 106 81 58 23 344 327 320 314 307 299 290 281 271 262 256 253 255 259 263 265 266 266 266
222 220 220 218 213 214 232 251 255 245 240 240 235 248 234 221 205 190 182 171 160 148 137 127 113 102 94 85 74 59 35 9 349 334 324 316 307 298 288 278 269 263 262 264 266 267 268 268 267
221 219 218 215 215 219 227 239 247 241 234 233 208 237 230 213 196 185 176 169 153 134 117 103 94 89 85 80 74 64 48 27 5 346 336 329 322 315 304 293 281 272 268 266 266 266 267 268 267
219 219 215 211 213 219 216 231 243 230 225 231 199 222 230 212 194 185 179 173 157 134 114 93 82 77 72 66 58 49 36 22 8 356 348 339 330 320 312 301 290 280 273 270 269 269 268 267 266
218 220 215 210 214 222 222 232 236 226 218 227 209 217 222 214 200 194 192 189 179 151 118 82 64 56 46 35 26 18 12 8 2 355 347 339 332 323 316 307 297 288 281 277 275 274 271 268 265
222 221 213 208 205 219 232 232 224 222 221 224 219 224 227 219 214 213 213 215 218 214 180 46 31 21 14 5 358 355 353 352 350 344 341 336 328 321 315 307 299 292 287 283 280 278 275 271 268
225 221 215 207 209 213 214 224 212 215 219 221 225 232 232 228 230 230 232 235 243 258 280 311 338 343 346 349 345 343 344 344 342 338 335 332 326 321 313 303 297 291 287 284 282 279 275 273 269
227 224 225 216 219 219 201 207 208 211 209 215 220 234 233 233 238 243 248 252 259 272 291 310 323 330 335 340 341 340 340 341 341 337 334 332 327 321 314 306 297 290 284 280 280 277 276 273 270
227 228 231 231 227 226 211 204 205 204 202 209 212 221 231 234 243 251 255 258 268 281 295 310 319 326 331 334 335 337 338 340 340 339 336 334 331 328 319 309 299 291 281 277 276 274 272 270 268
228 231 234 237 239 231 217 210 207 199 200 211 218 224 228 231 243 251 257 260 268 283 296 306 314 321 326 330 333 335 336 337 339 339 336 334 332 330 327 318 309 298 284 276 273 273 269 269 270
228 232 236 240 243 230 216 209 203 197 202 215 220 224 226 238 242 245 251 259 269 282 294 301 310 318 323 327 330 332 333 334 334 336 334 333 334 330 326 323 315 307 295 283 277 275 270 269 270
229 233 237 240 241 228 213 202 197 201 207 217 220 224 229 239 247 244 249 258 268 279 289 297 304 312 317 322 325 327 328 330 332 332 332 332 333 330 326 324 320 313 303 294 285 279 273 272 275
229 233 237 240 241 229 213 195 190 208 215 220 224 230 233 238 249 257 262 263 267 277 286 294 299 306 311 315 317 320 322 324 325 327 328 329 329 327 326 326 324 318 309 301 293 287 282 278 278
227 232 235 237 240 234 215 190 181 207 220 224 225 233 241 240 244 249 259 267 270 278 284 291 296 301 304 306 309 312 315 317 318 319 322 324 326 326 328 329 328 323 315 304 298 292 287 284 282
210 222 236 237 235 240 224 196 184 205 217 219 225 232 243 246 243 246 251 262 268 274 282 288 292 296 298 299 300 304 307 310 311 313 316 320 324 328 330 330 328 329 326 315 305 298 293 290 285
209 212 216 222 225 235 234 211 196 202 223 220 218 226 234 236 240 247 254 260 264 272 278 284 287 290 292 292 294 296 300 302 304 308 311 314 319 324 327 327 327 328 330 324 317 309 306 298 291
212 212 206 205 217 229 231 225 210 206 218 230 227 224 229 235 243 249 255 261 266 272 275 278 281 284 285 286 289 291 293 293 297 301 304 309 313 316 319 323 326 329 331 327 323 321 314 312 308
217 214 205 197 207 229 240 236 225 217 222 230 237 237 237 241 247 255 260 263 268 271 274 275 278 280 281 282 284 285 286 287 290 294 298 302 306 310 313 317 320 321 324 324 322 321 318 315 313
221 218 215 207 208 219 235 241 235 234 235 238 243 244 246 249 252 255 258 263 268 272 275 276 278 278 277 278 279 280 280 283 286 290 294 297 302 306 309 311 314 314 316 317 317 316 313 311 308
221 217 219 220 219 226 229 235 237 235 241 242 244 246 251 255 257 260 263 266 268 271 274 276 276 275 275 275 276 277 278 281 284 287 290 294 298 302 305 306 307 309 310 309 309 309 308 306 303
220 213 217 226 228 235 238 240 238 233 235 236 242 248 255 260 263 266 269 270 271 271 273 273 274 274 273 273 274 275 278 280 283 286 289 292 295 298 299 301 302 303 304 303 304 305 304 303 301
223 216 214 221 241 257 258 255 244 239 239 239 242 248 254 261 266 269 271 272 271 270 270 270 270 270 270 271 272 274 276 279 282 286 288 290 293 295 296 296 297 298 300 301 301 302 301 300 299
224 224 215 211 211 233 242 241 241 243 244 244 245 248 253 259 265 269 270 270 269 268 267 266 267 267 268 270 272 274 276 279 282 285 287 290 291 292 293 293 295 296 297 298 299 299 299 297 296
221 222 221 218 219 222 223 232 241 247 250 252 253 253 255 259 263 265 266 266 265 264 263 263 264 264 266 268 270 273 276 279 282 284 287 288 288 289 291 292 293 294 295 296 297 298 297 297 296
225 217 218 226 226 227 231 240 244 245 246 248 251 255 257 258 259 260 262 262 262 262 261 262 262 263 265 267 270 273 276 279 281 283 284 285 286 288 290 291 292 293 294 295 296 296 296 296 295
231 228 221 226 227 226 231 252 255 255 253 253 254 256 258 258 258 259 260 260 260 260 261 262 263 264 266 268 271 273 276 278 279 281 282 283 285 287 289 290 291 293 294 294 295 296 296 296 295
Height
5880 5884 5887 5891 5895 5898 5899 5904 5903 5901 5896 5896 5896 5896 5895 5893 5894 5896 5893 5892 5893 5893 5892 5892 5893 5893 5894 5894 5895 5895 5896 5896 5897 5898 5898 5899 5899 5899 5899 5899 5899 5900 5900 5900 5900 5900 5901 5901 5902
5878 5882 5885 5889 5892 5895 5899 5903 5903 5899 5896 5895 5895 5895 5892 5891 5892 5892 5891 5891 5893 5892 5892 5892 5892 5892 5893 5893 5894 5894 5895 5895 5896 5897 5897 5898 5898 5898 5898 5898 5898 5898 5898 5898 5898 5899 5899 5900 5900
5875 5878 5882 5885 5889 5891 5894 5899 5901 5897 5896 5896 5894 5892 5892 5891 5891 5891 5891 5891 5892 5892 5892 5891 5891 5892 5892 5892 5893 5893 5894 5895 5895 5896 5896 5897 5897 5897 5897 5897 5897 5897 5897 5897 5897 5897 5898 5898 5899
5871 5875 5878 5882 5886 5888 5892 5895 5897 5897 5896 5895 5894 5892 5891 5891 5891 5891 5890 5891 5891 5892 5891 5891 5891 5892 5892 5892 5892 5893 5893 5894 5895 5895 5895 5896 5896 5896 5896 5896 5896 5896 5895 5895 5895 5895 5896 5896 5897
5866 5870 5874 5876 5881 5885 5889 5893 5895 5896 5895 5893 5894 5892 5891 5891 5890 5890 5890 5891 5891 5891 5891 5892 5892 5892 5892 5892 5892 5893 5893 5894 5894 5895 5895 5894 5894 5894 5894 5894 5894 5894 5894 5894 5894 5894 5894 5894 5894
5862 5866 5869 5873 5878 5884 5888 5892 5894 5894 5895 5893 5893 5892 5891 5891 5891 5891 5891 5892 5892 5892 5892 5892 5892 5892 5892 5892 5892 5893 5893 5893 5894 5894 5894 5893 5893 5893 5893 5893 5893 5893 5893 5892 5892 5892 5892 5892 5892
5859 5862 5864 5869 5875 5880 5886 5891 5892 5892 5893 5891 5890 5891 5891 5891 5891 5891 5891 5892 5892 5892 5892 5892 5892 5892 5892 5893 5893 5893 5893 5893 5893 5893 5893 5893 5893 5893 5893 5893 5892 5892 5891 5891 5890 5890 5889 5889 5890
5856 5859 5861 5865 5870 5875 5881 5885 5888 5889 5891 5888 5888 5889 5889 5890 5891 5891 5891 5892 5892 5893 5893 5893 5892 5892 5893 5893 5893 5893 5893 5893 5893 5892 5892 5892 5892 5891 5891 5891 5890 5890 5889 5888 5887 5887 5887 5887 5887
5853 5856 5859 5863 5868 5873 5878 5882 5884 5885 5887 5886 5884 5884 5887 5889 5890 5891 5891 5892 5892 5893 5893 5893 5893 5893 5893 5893 5893 5893 5893 5892 5892 5891 5891 5891 5891 5890 5889 5889 5888 5888 5887 5886 5885 5885 5885 5884 5884
5851 5854 5859 5861 5865 5871 5876 5878 5881 5883 5884 5884 5882 5882 5885 5888 5890 5890 5891 5892 5892 5892 5892 5893 5893 5893 5893 5893 5893 5893 5892 5892 5891 5891 5890 5890 5889 5889 5888 5887 5886 5885 5884 5883 5882 5882 5882 5882 5882
5849 5853 5855 5858 5862 5866 5871 5874 5878 5880 5882 5883 5881 5882 5885 5887 5889 5890 5890 5891 5891 5891 5892 5892 5892 5892 5892 5892 5892 5892 5891 5890 5890 5889 5889 5888 5888 5887 5886 5885 5883 5882 5881 5880 5879 5879 5878 5879 5879
5847 5850 5852 5855 5858 5861 5864 5869 5873 5876 5879 5882 5882 5882 5883 5885 5888 5889 5890 5890 5890 5891 5891 5891 5891 5891 5891 5891 5890 5890 5890 5889 5888 5888 5887 5886 5885 5884 5883 5882 5880 5879 5878 5877 5876 5875 5875 5875 5875
5843 5847 5849 5852 5854 5856 5859 5862 5866 5871 5875 5876 5878 5880 5881 5884 5886 5888 5888 5888 5889 5890 5890 5890 5890 5889 5889 5889 5889 5888 5888 5888 5887 5886 5884 5883 5882 5881 5879 5878 5876 5875 5874 5873 5872 5872 5872 5871 5871
5839 5842 5845 5848 5851 5853 5855 5859 5863 5867 5872 5874 5875 5876 5878 5881 5883 5885 5885 5885 5887 5888 5888 5888 5888 5888 5887 5887 5887 5886 5885 5885 5884 5883 5881 5880 5879 5877 5875 5874 5872 5870 5869 5867 5866 5867 5866 5866 5866
5835 5838 5842 5845 5848 5850 5853 5856 5861 5866 5870 5872 5874 5875 5876 5879 5880 5880 5881 5882 5884 5886 5886 5886 5886 5886 5886 5885 5885 5884 5883 5882 5881 5880 5878 5877 5875 5873 5871 5869 5866 5864 5863 5861 5861 5861 5860 5860 5860
5830 5834 5838 5842 5845 5847 5852 5855 5860 5864 5868 5871 5872 5874 5876 5878 5876 5874 5876 5878 5880 5883 5884 5884 5884 5884 5883 5883 5882 5881 5880 5879 5878 5877 5875 5874 5872 5869 5866 5864 5860 5857 5855 5854 5853 5854 5854 5853 5854
5826 5830 5835 5839 5842 5845 5849 5854 5858 5863 5866 5868 5870 5872 5873 5874 5874 5873 5873 5874 5876 5880 5881 5881 5881 5881 5880 5880 5879 5878 5877 5876 5875 5874 5872 5870 5868 5865 5862 5858 5854 5850 5848 5847 5846 5846 5847 5847 5847
5823 5827 5831 5835 5839 5842 5846 5851 5855 5861 5864 5866 5868 5869 5869 5870 5872 5872 5871 5871 5874 5876 5878 5877 5877 5877 5877 5876 5875 5874 5874 5873 5871 5870 5868 5866 5864 5861 5858 5854 5850 5846 5843 5841 5840 5839 5839 5840 5840
5817 5824 5828 5833 5837 5839 5843 5848 5852 5857 5860 5864 5865 5866 5867 5866 5867 5869 5869 5869 5870 5873 5874 5874 5873 5872 5872 5872 5871 5870 5870 5869 5867 5865 5863 5861 5860 5857 5854 5850 5846 5842 5839 5836 5834 5833 5833 5833 5833
5811 5817 5824 5831 5836 5837 5839 5844 5848 5853 5856 5859 5861 5863 5863 5862 5862 5864 5864 5863 5864 5867 5869 5869 5868 5868 5867 5866 5866 5865 5865 5865 5863 5861 5858 5857 5855 5853 5850 5847 5843 5840 5836 5833 5830 5829 5828 5828 5827
5807 5812 5819 5828 5833 5833 5835 5838 5843 5847 5852 5854 5855 5857 5857 5857 5859 5860 5859 5859 5859 5861 5863 5864 5863 5862 5861 5860 5860 5859 5859 5859 5857 5855 5853 5851 5850 5848 5846 5843 5839 5836 5833 5830 5827 5826 5824 5823 5823
5802 5807 5813 5819 5827 5828 5829 5833 5838 5841 5846 5848 5850 5851 5850 5852 5855 5857 5856 5855 5856 5856 5856 5857 5857 5856 5854 5854 5853 5853 5853 5852 5851 5849 5848 5846 5844 5843 5840 5838 5835 5832 5829 5826 5823 5821 5819 5818 5816
5797 5803 5807 5812 5816 5821 5824 5827 5833 5837 5839 5842 5842 5842 5843 5847 5850 5851 5851 5851 5850 5850 5850 5849 5850 5848 5847 5847 5846 5846 5845 5844 5844 5842 5841 5840 5838 5836 5834 5832 5829 5827 5824 5821 5818 5815 5813 5811 5810
5793 5798 5803 5806 5809 5813 5818 5822 5827 5832 5833 5834 5832 5833 5837 5841 5843 5844 5845 5845 5845 5844 5843 5842 5842 5841 5840 5839 5838 5838 5837 5836 5836 5835 5834 5833 5831 5829 5827 5825 5823 5820 5817 5814 5812 5809 5807 5804 5802
5788 5794 5799 5802 5804 5807 5813 5816 5821 5823 5823 5824 5825 5827 5831 5834 5836 5837 5838 5837 5837 5837 5836 5834 5833 5833 5832 5831 5830 5829 5829 5828 5827 5826 5825 5825 5823 5822 5820 5818 5815 5813 5810 5807 5805 5802 5799 5796 5794
5784 5789 5795 5800 5804 5807 5809 5810 5814 5814 5816 5819 5821 5823 5825 5826 5828 5829 5829 5829 5829 5828 5827 5827 5826 5825 5824 5823 5822 5822 5821 5820 5819 5818 5817 5816 5815 5813 5811 5809 5807 5804 5801 5799 5796 5793 5790 5787 5783
5780 5784 5790 5794 5797 5801 5805 5807 5804 5805 5808 5811 5814 5816 5817 5818 5819 5819 5820 5820 5819 5819 5819 5818 5818 5817 5816 5816 5815 5814 5813 5812 5811 5810 5809 5807 5806 5804 5802 5800 5797 5794 5792 5789 5786 5783 5780 5776 5772
5776 5781 5785 5788 5791 5795 5800 5801 5798 5798 5801 5804 5806 5808 5809 5809 5810 5810 5810 5810 5810 5811 5811 5811 5810 5810 5809 5809 5808 5806 5805 5804 5802 5801 5799 5798 5796 5794 5792 5789 5787 5784 5781 5778 5775 5772 5768 5764 5760
5773 5776 5779 5784 5788 5791 5795 5797 5789 5790 5792 5795 5797 5798 5799 5799 5800 5801 5801 5801 5802 5802 5803 5803 5802 5802 5802 5801 5800 5799 5797 5796 5794 5792 5790 5788 5786 5783 5781 5778 5775 5773 5770 5766 5763 5759 5756 5752 5747
5770 5773 5775 5778 5781 5784 5788 5789 5783 5784 5784 5787 5788 5789 5790 5791 5792 5792 5792 5793 5793 5794 5794 5794 5794 5794 5793 5793 5792 5790 5788 5787 5785 5782 5780 5778 5775 5772 5770 5767 5764 5760 5757 5754 5750 5746 5743 5739 5734